Wind_Speed
29 30 30 31 31 32 32 32 33 33 34 34 35 35 35 35 36 36 37 38 38 39 39 39 40 40 41 41 42 42 42 43 43 43 43 44 44 45 45 46 46 46 46
31 31 32 32 32 33 34 34 34 34 35 36 36 36 36 37 37 37 38 39 39 40 40 41 41 42 42 43 43 43 43 44 44 44 45 45 45 46 46 47 47 48 48
32 33 33 33 34 35 35 35 35 36 36 37 37 37 37 38 39 39 39 39 40 41 41 42 43 43 43 44 44 44 44 45 45 45 45 46 46 46 47 47 47 48 48
34 34 34 35 36 36 36 36 36 36 37 37 38 38 38 39 40 40 40 41 41 42 42 43 43 44 44 44 45 45 45 45 45 46 46 46 47 47 47 48 48 48 49
35 35 36 36 37 37 37 37 37 37 38 38 38 39 39 40 41 41 41 41 42 43 43 43 44 44 44 44 45 45 45 45 46 46 47 47 48 48 49 49 49 50 50
36 36 37 37 37 38 38 38 38 38 39 39 39 39 40 41 41 41 42 42 42 43 43 43 44 44 44 44 44 45 45 46 46 46 47 47 48 48 49 50 50 51 51
37 38 38 38 38 38 38 39 39 39 39 39 39 40 40 41 42 42 43 43 43 43 44 44 44 44 44 44 45 45 45 45 46 46 46 46 47 48 49 49 50 51 52
38 38 38 38 38 39 39 39 39 39 39 39 40 40 40 41 42 42 43 44 44 45 45 45 45 44 44 45 45 45 45 45 46 46 46 47 47 48 49 50 51 52 53
38 38 38 38 39 39 39 39 39 39 40 40 40 40 41 41 41 42 43 44 45 45 45 45 45 45 45 45 45 45 45 45 45 46 47 47 48 49 50 51 52 53 54
38 38 38 38 38 39 39 40 40 40 40 40 40 41 42 42 43 43 43 44 44 44 45 45 45 45 45 45 45 45 45 46 47 48 49 50 51 52 52 53 54 55 56
38 38 38 38 38 39 39 39 40 40 40 41 41 42 43 44 44 44 44 44 44 45 45 45 45 45 45 45 45 46 47 48 50 51 52 53 54 55 57 58 59 60 61
38 38 38 38 38 38 39 39 40 41 41 42 43 43 44 45 45 45 45 44 44 44 45 46 46 46 46 47 48 49 50 52 53 54 56 57 58 60 62 63 65 66 67
37 37 37 37 38 38 39 40 41 41 42 43 44 45 45 46 46 46 46 45 44 44 45 46 46 47 48 49 51 52 53 55 57 58 60 62 64 65 67 68 70 71 72
36 37 37 38 38 39 40 40 41 42 43 44 45 46 46 47 47 47 48 48 47 46 46 46 48 49 51 52 54 56 57 59 61 63 65 67 69 71 72 73 74 75 76
36 37 37 38 39 39 40 41 42 43 44 45 46 47 47 48 48 49 49 50 49 48 47 48 50 52 54 56 58 60 62 64 66 68 70 72 73 74 75 76 77 78 79
36 37 37 38 39 40 41 42 43 44 45 46 47 48 48 49 50 50 51 51 52 52 51 52 55 57 59 61 63 65 67 68 70 72 73 73 74 75 76 77 78 78 78
36 37 37 38 39 40 41 42 43 45 45 46 47 48 49 50 51 52 52 53 54 55 56 56 59 61 63 65 67 69 70 72 73 73 73 73 74 75 76 75 75 74 74
36 37 37 38 39 40 42 43 44 45 46 47 48 49 50 51 52 53 54 55 57 59 61 61 62 64 66 68 69 70 72 72 72 72 73 74 74 73 72 71 70 70 69
36 37 37 38 39 41 42 43 45 46 47 48 49 51 52 53 54 55 57 58 60 62 64 65 66 67 69 70 71 72 72 72 72 72 73 72 71 70 69 68 67 65 64
35 36 37 38 40 41 43 44 46 47 48 49 51 52 53 55 56 58 59 61 63 65 66 68 69 69 70 71 72 72 71 71 71 72 72 70 69 67 65 64 63 61 60
35 36 38 39 40 42 44 45 46 48 49 50 52 53 55 57 58 60 63 64 66 67 68 70 70 70 70 72 72 72 71 70 70 70 69 67 65 63 61 59 58 56 55
36 37 39 40 41 43 45 46 48 49 50 51 53 55 57 59 61 63 65 67 68 70 71 71 71 72 72 72 71 71 70 69 67 66 64 61 59 57 56 54 52 50 48
37 38 39 40 42 44 45 47 48 49 51 53 54 56 59 61 63 65 67 68 69 71 71 72 72 72 72 71 71 69 68 66 64 61 58 54 53 51 49 47 45 43 40
37 39 40 41 42 44 46 47 49 51 52 54 56 58 60 63 65 67 68 69 70 70 71 72 72 72 71 71 69 66 64 61 58 55 53 50 47 44 42 41 39 37 35
38 39 40 42 43 45 47 49 50 52 53 55 57 60 62 64 67 69 70 70 69 69 71 71 71 70 69 67 65 62 59 56 52 49 47 44 41 38 36 36 35 32 30
38 39 40 42 44 46 48 50 51 52 54 57 59 62 64 66 68 69 70 70 70 70 69 69 67 66 65 63 61 59 55 50 46 42 40 39 36 34 31 31 30 28 26
Wind_Direction
297 297 296 295 295 295 295 295 295 294 294 294 293 293 292 291 291 291 290 290 289 289 289 288 287 286 285 284 283 282 280 279 277 276 275 274 273 271 270 269 268 267 266
295 295 295 295 295 295 295 295 295 294 294 294 293 293 292 292 291 291 291 290 290 290 289 289 288 287 286 285 283 282 280 279 278 277 276 275 274 273 272 270 269 268 267
294 294 294 294 295 295 295 294 293 293 294 294 294 293 292 292 292 292 292 291 291 290 290 289 288 287 286 284 283 282 281 280 279 278 277 275 274 274 273 272 270 269 268
293 293 293 293 294 294 295 294 293 294 294 295 294 294 293 293 293 293 293 292 292 291 291 290 289 288 287 285 284 283 281 280 279 278 277 276 275 275 274 273 271 270 269
292 292 292 293 293 294 294 294 293 294 295 295 295 295 295 295 294 294 294 294 293 293 292 291 290 289 287 286 285 283 282 281 280 279 278 277 276 275 274 273 272 271 270
291 291 291 292 293 293 293 293 293 294 295 295 295 296 297 297 296 296 296 295 295 294 294 293 291 290 289 287 286 285 284 282 281 280 279 279 278 277 276 274 273 272 271
290 290 291 292 292 293 293 293 294 294 295 295 296 297 298 298 298 297 297 297 297 296 295 294 293 292 290 289 287 286 285 284 283 282 281 280 279 278 277 276 274 273 272
289 290 290 291 291 292 293 294 294 294 294 296 296 297 298 298 298 298 299 299 298 297 296 295 294 293 291 290 289 288 287 285 284 283 282 281 280 279 278 277 276 275 273
289 289 289 289 290 291 292 293 294 294 295 296 296 297 298 298 298 299 299 299 299 298 297 296 295 294 293 291 290 289 288 287 286 285 284 283 282 281 280 279 278 276 275
288 288 289 289 289 291 291 293 294 295 296 296 296 297 298 299 299 300 300 300 299 299 298 296 295 294 293 292 291 290 289 289 288 287 286 285 284 283 282 281 280 279 277
287 288 288 288 289 291 291 293 294 296 296 297 297 298 299 300 300 300 301 300 300 300 298 297 296 295 294 293 292 291 290 290 289 289 288 287 286 285 284 283 282 280 279
286 287 288 288 290 291 292 293 295 296 296 297 298 299 300 301 301 301 301 300 300 300 299 298 297 296 295 294 293 293 292 291 290 290 289 289 288 287 286 285 284 282 281
285 286 287 288 290 291 292 293 294 296 297 298 299 300 301 301 301 301 301 300 300 299 299 298 297 296 295 295 294 294 293 292 292 291 290 290 289 288 287 285 284 283 281
285 286 287 289 290 292 292 293 294 296 297 298 299 301 302 302 302 301 301 301 300 299 299 298 297 296 296 296 295 295 294 293 293 292 292 291 290 289 287 286 285 283 282
285 286 288 289 290 291 292 293 295 296 297 299 300 301 301 302 302 302 302 301 300 299 298 298 298 297 297 297 296 295 295 294 294 293 293 292 291 290 289 288 287 285 283
285 286 288 289 290 291 292 294 296 297 298 299 300 301 301 302 302 302 302 301 301 300 299 299 299 298 298 297 297 297 296 296 295 295 294 294 293 292 291 290 289 287 285
285 286 288 289 290 291 293 295 296 298 299 300 300 301 302 302 302 302 302 302 302 301 300 300 300 299 299 299 299 299 298 298 297 297 296 296 295 294 293 291 290 288 286
286 287 288 289 290 292 294 295 297 298 299 300 300 301 301 302 302 302 302 302 302 302 301 301 300 300 300 299 299 299 299 298 298 298 298 297 296 295 294 292 291 289 287
286 287 288 289 291 293 295 296 297 298 299 300 300 301 301 302 302 303 303 303 303 302 302 301 301 300 300 300 300 300 299 299 299 299 299 298 297 296 295 293 292 291 289
287 288 289 291 292 294 295 297 298 299 299 300 301 302 302 302 303 303 303 303 303 302 302 302 301 301 300 300 301 300 299 300 300 300 299 298 297 296 295 294 293 292 290
288 289 291 292 294 295 297 298 298 299 300 301 302 302 303 303 304 304 304 304 303 303 302 302 302 302 302 302 302 301 300 300 300 299 298 298 297 296 296 295 294 293 291
290 291 293 294 295 296 297 298 299 300 301 302 303 303 304 304 304 305 305 305 304 304 303 302 302 303 303 303 302 301 301 300 300 299 298 297 297 297 296 296 295 294 293
291 292 294 295 296 298 299 300 301 302 303 303 304 305 305 305 305 306 305 305 305 304 304 303 304 304 304 303 302 302 302 302 302 300 298 297 297 297 297 296 295 295 294
293 294 295 297 298 300 300 301 302 303 303 304 305 306 306 306 307 306 306 305 305 305 304 304 304 304 304 304 304 303 303 303 302 301 299 299 298 298 298 297 296 295 294
294 295 297 298 300 301 302 303 304 304 305 305 306 307 307 307 307 307 306 306 306 305 304 305 305 305 305 305 304 304 304 303 303 301 300 300 300 300 299 297 297 297 296
296 297 299 300 301 302 303 304 304 305 305 307 307 308 308 308 308 307 307 307 306 306 305 305 305 305 305 305 304 304 304 304 304 302 301 302 302 301 300 298 297 298 297
Height
5836 5834 5832 5829 5827 5825 5822 5820 5817 5814 5812 5809 5806 5803 5800 5797 5795 5792 5789 5786 5783 5780 5777 5774 5772 5769 5766 5764 5761 5759 5757 5755 5753 5751 5750 5748 5747 5746 5745 5744 5743 5743 5742
5830 5828 5826 5823 5821 5818 5816 5813 5810 5808 5805 5802 5799 5796 5793 5790 5787 5784 5781 5778 5774 5771 5768 5765 5763 5760 5757 5754 5752 5749 5747 5745 5743 5741 5739 5738 5736 5735 5734 5733 5732 5732 5731
5824 5822 5820 5817 5814 5812 5809 5806 5803 5801 5798 5794 5791 5788 5785 5782 5779 5776 5772 5769 5766 5762 5759 5756 5753 5750 5747 5744 5742 5739 5737 5734 5732 5730 5728 5727 5725 5724 5722 5721 5721 5720 5719
5817 5815 5813 5810 5807 5805 5802 5799 5796 5793 5790 5787 5784 5780 5777 5774 5770 5767 5764 5760 5757 5753 5750 5747 5743 5740 5737 5734 5731 5729 5726 5724 5721 5719 5717 5715 5714 5712 5711 5710 5709 5708 5707
5810 5808 5806 5803 5800 5797 5794 5791 5788 5785 5782 5779 5775 5772 5768 5765 5761 5758 5755 5751 5747 5744 5740 5737 5733 5730 5727 5724 5721 5718 5715 5713 5710 5708 5706 5704 5702 5701 5699 5698 5697 5696 5695
5803 5801 5798 5795 5792 5790 5787 5784 5781 5777 5774 5771 5767 5764 5760 5756 5752 5749 5745 5742 5738 5734 5730 5727 5723 5720 5717 5713 5710 5707 5705 5702 5699 5697 5695 5693 5691 5689 5687 5686 5685 5684 5683
5795 5793 5790 5787 5785 5782 5779 5776 5773 5769 5766 5763 5759 5756 5752 5748 5744 5740 5736 5732 5728 5724 5720 5716 5713 5709 5706 5703 5700 5696 5694 5691 5688 5686 5683 5681 5679 5677 5675 5673 5672 5671 5669
5787 5785 5782 5780 5777 5774 5771 5768 5764 5761 5758 5754 5751 5747 5744 5740 5735 5731 5726 5722 5718 5714 5710 5706 5702 5699 5695 5692 5689 5686 5683 5680 5677 5674 5672 5669 5667 5665 5663 5661 5659 5657 5656
5779 5777 5774 5771 5768 5766 5762 5759 5756 5753 5749 5746 5742 5739 5735 5732 5728 5723 5718 5713 5708 5704 5700 5696 5692 5688 5684 5681 5678 5674 5671 5668 5665 5662 5659 5657 5654 5652 5649 5647 5645 5643 5642
5771 5768 5766 5763 5760 5757 5754 5751 5748 5744 5741 5737 5734 5730 5726 5722 5718 5714 5709 5704 5699 5694 5690 5685 5681 5677 5674 5670 5667 5663 5660 5657 5653 5650 5647 5644 5641 5638 5636 5633 5631 5628 5626
5763 5760 5757 5755 5752 5749 5746 5743 5739 5736 5732 5729 5725 5721 5717 5713 5708 5704 5700 5695 5690 5684 5679 5675 5670 5666 5663 5659 5655 5652 5648 5644 5641 5637 5634 5630 5627 5623 5620 5617 5614 5612 5610
5754 5752 5749 5746 5744 5741 5738 5734 5731 5727 5724 5720 5716 5712 5708 5703 5699 5694 5690 5686 5681 5675 5670 5664 5660 5655 5651 5647 5643 5639 5635 5631 5627 5623 5619 5615 5611 5607 5603 5599 5596 5593 5590
5746 5743 5741 5738 5735 5732 5729 5726 5722 5719 5715 5711 5706 5702 5698 5693 5688 5684 5679 5675 5671 5666 5660 5654 5649 5644 5640 5636 5631 5627 5622 5617 5613 5608 5603 5599 5594 5589 5585 5580 5576 5572 5568
5737 5735 5733 5730 5727 5724 5721 5717 5713 5709 5705 5701 5697 5692 5688 5683 5678 5673 5668 5664 5660 5656 5651 5645 5639 5633 5628 5623 5618 5613 5608 5602 5597 5591 5586 5580 5575 5569 5563 5558 5553 5549 5545
5729 5727 5724 5722 5719 5715 5712 5708 5704 5700 5696 5692 5687 5682 5677 5672 5667 5662 5657 5652 5648 5644 5641 5634 5627 5621 5615 5609 5603 5598 5592 5585 5579 5573 5566 5560 5553 5547 5541 5535 5529 5524 5519
5721 5718 5716 5713 5710 5706 5703 5699 5695 5691 5687 5682 5677 5672 5667 5662 5657 5651 5646 5640 5635 5630 5627 5622 5615 5607 5600 5594 5587 5580 5574 5567 5560 5552 5545 5538 5531 5524 5517 5510 5504 5498 5493
5712 5709 5707 5704 5701 5697 5694 5690 5686 5681 5677 5672 5667 5662 5657 5651 5645 5640 5634 5628 5622 5616 5612 5608 5600 5592 5584 5577 5569 5562 5554 5546 5539 5531 5523 5516 5508 5501 5493 5486 5480 5473 5468
5703 5701 5698 5695 5692 5688 5684 5680 5676 5671 5667 5662 5656 5651 5645 5640 5634 5628 5621 5615 5609 5602 5596 5591 5585 5576 5568 5559 5551 5543 5535 5526 5519 5511 5503 5495 5486 5478 5471 5464 5457 5451 5445
5695 5692 5689 5686 5683 5679 5675 5670 5666 5661 5656 5651 5646 5640 5634 5628 5622 5615 5608 5601 5594 5587 5579 5573 5567 5559 5550 5541 5533 5524 5516 5507 5499 5491 5482 5474 5465 5457 5450 5442 5436 5430 5424
5686 5683 5680 5677 5673 5669 5665 5660 5656 5651 5646 5640 5634 5628 5622 5615 5608 5601 5594 5587 5579 5571 5563 5555 5548 5540 5531 5522 5513 5505 5498 5489 5480 5471 5462 5453 5446 5438 5430 5423 5417 5411 5405
5677 5674 5671 5667 5663 5659 5655 5650 5645 5640 5634 5629 5622 5616 5609 5601 5594 5587 5579 5571 5562 5554 5545 5537 5529 5521 5513 5503 5494 5485 5478 5471 5463 5452 5444 5435 5427 5420 5412 5405 5399 5393 5387
5668 5665 5661 5658 5654 5649 5644 5639 5634 5629 5623 5617 5610 5603 5596 5588 5580 5572 5563 5554 5545 5535 5527 5518 5510 5502 5493 5483 5474 5465 5457 5451 5445 5437 5426 5420 5410 5404 5396 5389 5383 5377 5372
5659 5656 5652 5648 5644 5639 5634 5629 5623 5617 5611 5604 5597 5590 5582 5573 5565 5556 5547 5538 5528 5517 5507 5498 5491 5482 5473 5464 5455 5448 5439 5431 5424 5416 5408 5404 5396 5389 5382 5375 5369 5364 5360
5650 5646 5642 5638 5633 5628 5623 5617 5611 5605 5599 5592 5584 5576 5568 5559 5549 5540 5532 5523 5512 5502 5491 5481 5472 5463 5453 5444 5435 5428 5420 5414 5407 5399 5391 5387 5382 5376 5370 5363 5358 5353 5350
5640 5636 5632 5627 5623 5617 5612 5606 5599 5593 5586 5579 5571 5562 5553 5544 5534 5524 5515 5506 5497 5486 5475 5464 5454 5444 5435 5426 5417 5410 5404 5397 5392 5386 5378 5373 5369 5364 5359 5353 5348 5344 5341
5630 5626 5622 5617 5612 5606 5600 5594 5587 5581 5574 5567 5558 5548 5538 5528 5518 5507 5496 5487 5479 5469 5459 5449 5438 5428 5419 5410 5402 5395 5388 5383 5377 5373 5367 5362 5358 5353 5351 5345 5340 5337 5334